Location: Franzen
(48.6167°N, 15.3833°E)
Time: 09:33:52
(UTC+00:00)

Altair - Pass Details

Date: 07 August 2021
Orbit: 1501 x 1682 km, 47.2° (Epoch: 20 September)

Event Time Altitude Azimuth Distance (km) Brightness Sun altitude
Rises 23:00:37 0° 230° (SW) 4,801 - -25.2°
Reaches altitude 10° 23:03:49 10° 226° (SW) 3,792 - -25.2°
Exits shadow 23:09:42 39° 205° (SSW) 2,180 7.8 -25.2°
Maximum altitude 23:13:04 56° 152° (SSE) 1,793 7.5 -25.2°
Drops below altitude 10° 23:22:02 10° 77° (ENE) 3,680 9.7 -25.1°
Sets 23:25:05 0° 74° (ENE) 4,652 10.3 -25.1°
